CW2274 Weather Reports


Display with metric or nautical units.
time (UTC)temp
F
wind
direction
speed
MPH
gust
MPH
rain 1hr
in
rain 24hr
in
rain mn
in
humidity
%
barometer
mb
20260905061513 84 56 2.0 4.0 0.00 0.00 0.00 53 1016.1
20260905061029 84 56 2.0 4.0 0.00 0.00 0.00 53 1016.0
20260905060523 83 56 2.0 2.0 0.00 0.00 0.00 54 1016.1
20260905060029 84 56 0.0 5.0 0.00 0.00 0.00 53 1016.0
20260905055529 84 56 1.0 5.0 0.00 0.00 0.00 52 1015.9
20260905055023 84 53 2.0 7.0 0.00 0.00 0.00 52 1015.9
20260905054517 85 52 3.0 7.0 0.00 0.00 0.00 50 1015.9
20260905054016 85 51 3.0 7.0 0.00 0.00 0.00 50 1016.1
20260905053530 85 35 4.0 5.0 0.00 0.00 0.00 47 1015.9
20260905053024 85 269 2.0 4.0 0.00 0.00 0.00 47 1015.9
20260905052518 85 269 2.0 4.0 0.00 0.00 0.00 47 1015.8
20260905052012 85 269 1.0 2.0 0.00 0.00 0.00 46 1015.8
20260905051526 85 269 1.0 2.0 0.00 0.00 0.00 46 1015.6
20260905051020 86 269 1.0 4.0 0.00 0.00 0.00 46 1015.5
20260905050515 86 269 1.0 4.0 0.00 0.00 0.00 45 1015.6
20260905050027 86 269 1.0 6.0 0.00 0.00 0.00 44 1015.5
20260905045526 87 269 2.0 6.0 0.00 0.00 0.00 44 1015.5
20260905045021 87 277 2.0 6.0 0.00 0.00 0.00 43 1015.4
20260905044514 87 261 2.0 7.0 0.00 0.00 0.00 43 1015.5
20260905044029 87 260 2.0 7.0 0.00 0.00 0.00 43 1015.4
20260905043523 87 259 3.0 6.0 0.00 0.00 0.00 43 1015.4
20260905043018 87 240 3.0 7.0 0.00 0.00 0.00 42 1015.4
20260905042517 87 238 3.0 5.0 0.00 0.00 0.00 42 1015.4
20260905042011 87 236 3.0 5.0 0.00 0.00 0.00 42 1015.4
20260905041525 87 233 2.0 4.0 0.00 0.00 0.00 42 1015.6
20260905041019 88 233 2.0 4.0 0.00 0.00 0.00 41 1015.6
20260905040513 88 232 2.0 6.0 0.00 0.00 0.00 40 1015.5
20260905040039 88 231 3.0 6.0 0.00 0.00 0.00 40 1015.6
20260905035518 88 231 3.0 5.0 0.00 0.00 0.00 40 1015.5
20260905035012 88 236 2.0 5.0 0.00 0.00 0.00 40 1015.4
20260905034530 88 236 3.0 5.0 0.00 0.00 0.00 40 1015.4
20260905034025 88 236 2.0 5.0 0.00 0.00 0.00 40 1015.4
20260905033520 88 236 2.0 6.0 0.00 0.00 0.00 40 1015.3
20260905033014 88 248 2.0 8.0 0.00 0.00 0.00 39 1015.3
20260905032529 88 239 4.0 8.0 0.00 0.00 0.00 39 1015.2
20260905032023 88 294 3.0 5.0 0.00 0.00 0.00 39 1015.1
20260905031517 88 296 1.0 3.0 0.00 0.00 0.00 40 1015.0
20260905031015 88 296 1.0 4.0 0.00 0.00 0.00 40 1014.9
20260905030529 88 296 2.0 4.0 0.00 0.00 0.00 40 1014.9
20260905030036 88 296 2.0 3.0 0.00 0.00 0.00 40 1014.9
20260905025516 88 296 2.0 4.0 0.00 0.00 0.00 39 1014.7
20260905025030 88 296 1.0 4.0 0.00 0.00 0.00 39 1014.8
20260905024525 88 298 1.0 4.0 0.00 0.00 0.00 39 1014.6
20260905024018 89 298 2.0 3.0 0.00 0.00 0.00 39 1014.6
20260905023513 89 298 1.0 2.0 0.00 0.00 0.00 39 1014.5
20260905023032 89 298 0.0 3.0 0.00 0.00 0.00 39 1014.5
20260905022526 89 298 0.0 4.0 0.00 0.00 0.00 39 1014.4
20260905022022 89 298 2.0 4.0 0.00 0.00 0.00 39 1014.4
20260905021516 89 298 2.0 3.0 0.00 0.00 0.00 40 1014.5
20260905021032 89 298 1.0 2.0 0.00 0.00 0.00 38 1014.4
20260905020526 90 298 0.0 2.0 0.00 0.00 0.00 38 1014.4
20260905020032 90 298 1.0 2.0 0.00 0.00 0.00 37 1014.3
20260905015517 90 298 1.0 3.0 0.00 0.00 0.00 37 1014.2
20260905015032 90 298 1.0 4.0 0.00 0.00 0.00 36 1014.2
20260905014525 91 298 2.0 4.0 0.00 0.00 0.00 34 1014.3
20260905014020 91 298 2.0 4.0 0.00 0.00 0.00 35 1014.1
20260905013515 91 299 2.0 4.0 0.00 0.00 0.00 35 1014.1
20260905013029 91 299 2.0 5.0 0.00 0.00 0.00 33 1014.2
20260905012524 92 300 2.0 8.0 0.00 0.00 0.00 33 1014.2
20260905012018 92 296 3.0 8.0 0.00 0.00 0.00 32 1014.1
20260905011516 92 287 2.0 6.0 0.00 0.00 0.00 31 1014.2
20260905011030 92 281 2.0 6.0 0.00 0.00 0.00 33 1014.1
20260905010524 92 281 2.0 9.0 0.00 0.00 0.00 33 1013.9
20260905010031 93 281 2.0 9.0 0.00 0.00 0.00 31 1014.0
20260905005531 93 285 4.0 9.0 0.00 0.00 0.00 29 1014.0
20260905005024 93 303 2.0 10.0 0.00 0.00 0.00 29 1014.0
20260905004518 94 304 2.0 7.0 0.00 0.00 0.00 29 1013.9
20260905004016 94 319 2.0 5.0 0.00 0.00 0.00 29 1013.9
20260905003531 94 293 1.0 4.0 0.00 0.00 0.00 31 1013.9
20260905003025 94 293 2.0 7.0 0.00 0.00 0.00 30 1014.0
20260905002519 95 287 2.0 9.0 0.00 0.00 0.00 30 1013.8
20260905002013 95 295 3.0 9.0 0.00 0.00 0.00 29 1013.8
20260905001528 95 295 3.0 9.0 0.00 0.00 0.00 30 1013.8
20260905001022 95 298 3.0 8.0 0.00 0.00 0.00 30 1013.7
20260905000516 95 286 3.0 8.0 0.00 0.00 0.00 30 1013.7
20260905000046 96 306 2.0 8.0 0.00 0.00 0.00 30 1013.7
20260904235527 96 285 3.0 9.0 0.00 0.00 0.00 29 1013.8
20260904235021 96 290 4.0 11.0 0.00 0.00 0.00 30 1013.6
20260904234516 96 283 5.0 11.0 0.00 0.00 0.00 30 1013.6
20260904234032 96 320 2.0 7.0 0.00 0.00 0.00 31 1013.8
20260904233527 96 322 2.0 7.0 0.00 0.00 0.00 30 1013.8
20260904233022 96 294 3.0 9.0 0.00 0.00 0.00 30 1013.9
20260904232521 95 324 2.0 9.0 0.00 0.00 0.00 31 1014.0
20260904232016 94 25 3.0 6.0 0.00 0.00 0.00 32 1013.8
20260904231531 95 310 1.0 5.0 0.00 0.00 0.00 33 1013.9
20260904231027 95 309 2.0 7.0 0.00 0.00 0.00 32 1014.0
20260904230522 95 304 2.0 7.0 0.00 0.00 0.00 32 1014.0
20260904230030 95 292 3.0 10.0 0.00 0.00 0.00 32 1014.0
20260904225531 96 264 5.0 10.0 0.00 0.00 0.00 31 1013.9
20260904225025 96 353 4.0 8.0 0.00 0.00 0.00 31 1014.0
20260904224525 96 343 2.0 8.0 0.00 0.00 0.00 30 1014.1
20260904224019 97 282 2.0 8.0 0.00 0.00 0.00 30 1014.1
20260904223514 95 288 2.0 10.0 0.00 0.00 0.00 31 1014.1
20260904223028 97 289 5.0 10.0 0.00 0.00 0.00 29 1014.2
20260904222523 96 214 5.0 9.0 0.00 0.00 0.00 29 1014.2
20260904222018 95 256 2.0 9.0 0.00 0.00 0.00 29 1014.1
20260904221513 97 255 3.0 10.0 0.00 0.00 0.00 28 1014.3
20260904221030 97 297 4.0 10.0 0.00 0.00 0.00 29 1014.4
20260904220523 97 277 5.0 9.0 0.00 0.00 0.00 29 1014.4
20260904220029 96 281 3.0 7.0 0.00 0.00 0.00 29 1014.4
20260904215527 97 313 3.0 11.0 0.00 0.00 0.00 27 1014.4
20260904215021 95 283 6.0 11.0 0.00 0.00 0.00 29 1014.4
20260904214515 96 282 3.0 4.0 0.00 0.00 0.00 30 1014.5
20260904214029 95 355 1.0 4.0 0.00 0.00 0.00 34 1014.7
20260904213523 93 355 2.0 4.0 0.00 0.00 0.00 36 1014.8
20260904213022 92 355 1.0 5.0 0.00 0.00 0.00 36 1014.7
20260904212516 92 355 2.0 5.0 0.00 0.00 0.00 37 1014.8
20260904212031 93 355 2.0 7.0 0.00 0.00 0.00 36 1014.8
20260904211525 93 355 2.0 6.0 0.00 0.00 0.00 37 1014.8
20260904211019 94 33 3.0 9.0 0.00 0.00 0.00 38 1014.9
20260904210513 92 15 1.0 5.0 0.00 0.00 0.00 39 1015.0
20260904210039 92 15 2.0 7.0 0.00 0.00 0.00 39 1015.2
20260904205523 94 10 3.0 7.0 0.00 0.00 0.00 38 1015.0
20260904205017 93 15 3.0 6.0 0.00 0.00 0.00 39 1015.0
20260904204531 93 11 1.0 8.0 0.00 0.00 0.00 39 1015.1
20260904204025 93 10 3.0 8.0 0.00 0.00 0.00 37 1015.2
20260904203519 93 11 2.0 10.0 0.00 0.00 0.00 39 1015.2
20260904203014 94 347 4.0 10.0 0.00 0.00 0.00 37 1015.3
20260904202528 95 355 2.0 6.0 0.00 0.00 0.00 37 1015.4
20260904202022 95 2 3.0 8.0 0.00 0.00 0.00 35 1015.5
20260904201521 97 348 2.0 8.0 0.00 0.00 0.00 35 1015.6
20260904201015 96 297 3.0 8.0 0.00 0.00 0.00 36 1015.7
20260904200529 95 287 2.0 14.0 0.00 0.00 0.00 36 1015.8
20260904200035 96 267 7.0 14.0 0.00 0.00 0.00 37 1015.8
20260904195515 94 214 4.0 10.0 0.00 0.00 0.00 37 1015.8
20260904195031 95 240 4.0 10.0 0.00 0.00 0.00 37 1015.9
20260904194526 94 287 2.0 3.0 0.00 0.00 0.00 38 1015.8
20260904194025 94 287 1.0 4.0 0.00 0.00 0.00 38 1015.9
20260904193519 93 266 1.0 6.0 0.00 0.00 0.00 38 1016.0
20260904193013 94 244 2.0 6.0 0.00 0.00 0.00 39 1016.1
20260904192528 94 258 3.0 7.0 0.00 0.00 0.00 38 1016.2
20260904192024 94 260 2.0 7.0 0.00 0.00 0.00 39 1016.4
20260904191519 94 260 5.0 9.0 0.00 0.00 0.00 38 1016.6
20260904191014 95 265 4.0 9.0 0.00 0.00 0.00 40 1016.5
20260904190513 95 297 1.0 3.0 0.00 0.00 0.00 40 1016.5
20260904190040 93 297 1.0 5.0 0.00 0.00 0.00 41 1016.5
20260904185522 93 296 1.0 7.0 0.00 0.00 0.00 42 1016.7
20260904185017 94 284 2.0 7.0 0.00 0.00 0.00 40 1016.6
20260904184531 93 282 2.0 7.0 0.00 0.00 0.00 43 1016.8
20260904184027 93 291 3.0 5.0 0.00 0.00 0.00 43 1016.9
20260904183522 93 295 2.0 5.0 0.00 0.00 0.00 44 1016.9
20260904183017 91 151 1.0 5.0 0.00 0.00 0.00 46 1017.0
20260904182516 90 153 3.0 6.0 0.00 0.00 0.00 45 1017.2
20260904182031 91 219 3.0 11.0 0.00 0.00 0.00 43 1017.2
20260904181526 92 218 5.0 11.0 0.00 0.00 0.00 43 1017.2
20260904181021 92 61 2.0 7.0 0.00 0.00 0.00 44 1017.3
20260904180517 90 94 4.0 12.0 0.00 0.00 0.00 47 1017.3
20260904180045 89 90 4.0 12.0 0.00 0.00 0.00 50 1017.4
20260904175526 90 89 6.0 10.0 0.00 0.00 0.00 49 1017.4
20260904175025 89 90 1.0 8.0 0.00 0.00 0.00 50 1017.4
20260904174519 88 89 3.0 8.0 0.00 0.00 0.00 52 1017.5
20260904174015 89 91 2.0 7.0 0.00 0.00 0.00 50 1017.6
20260904173530 88 92 4.0 10.0 0.00 0.00 0.00 51 1017.6
20260904173027 88 96 4.0 10.0 0.00 0.00 0.00 52 1017.7
20260904172521 88 96 4.0 9.0 0.00 0.00 0.00 51 1017.6
20260904172016 87 113 3.0 9.0 0.00 0.00 0.00 51 1017.8
20260904171514 88 273 3.0 7.0 0.00 0.00 0.00 53 1017.7
20260904171029 88 193 2.0 5.0 0.00 0.00 0.00 52 1017.8
20260904170525 87 154 2.0 9.0 0.00 0.00 0.00 52 1018.0
20260904170032 87 126 4.0 9.0 0.00 0.00 0.00 52 1018.0
20260904165514 87 214 4.0 9.0 0.00 0.00 0.00 53 1018.0
20260904165030 88 220 2.0 9.0 0.00 0.00 0.00 53 1017.9
20260904164525 86 169 4.0 9.0 0.00 0.00 0.00 55 1017.8
20260904164020 86 213 4.0 9.0 0.00 0.00 0.00 56 1017.8
20260904163519 86 148 4.0 12.0 0.00 0.00 0.00 56 1017.8
20260904163014 85 133 6.0 12.0 0.00 0.00 0.00 56 1017.8
20260904162529 85 113 3.0 9.0 0.00 0.00 0.00 57 1017.8
20260904162024 85 91 5.0 9.0 0.00 0.00 0.00 58 1017.7
20260904161520 85 134 4.0 12.0 0.00 0.00 0.00 58 1017.8
20260904161016 85 119 5.0 12.0 0.00 0.00 0.00 58 1017.6
20260904160531 84 85 4.0 8.0 0.00 0.00 0.00 61 1017.7
20260904160044 83 77 4.0 9.0 0.00 0.00 0.00 62 1017.7
20260904155525 83 111 3.0 10.0 0.00 0.00 0.00 63 1017.6
20260904155021 83 126 5.0 10.0 0.00 0.00 0.00 63 1017.7
20260904154518 82 112 4.0 10.0 0.00 0.00 0.00 64 1017.6
20260904154013 82 102 4.0 9.0 0.00 0.00 0.00 65 1017.6
20260904153528 82 122 5.0 9.0 0.00 0.00 0.00 64 1017.5
20260904153024 81 108 3.0 9.0 0.00 0.00 0.00 66 1017.5
20260904152523 81 107 5.0 10.0 0.00 0.00 0.00 66 1017.5
20260904152017 81 127 6.0 11.0 0.00 0.00 0.00 65 1017.7
20260904151513 82 124 5.0 11.0 0.00 0.00 0.00 65 1017.6
20260904151030 81 101 5.0 11.0 0.00 0.00 0.00 65 1017.5
20260904150525 81 90 4.0 9.0 0.00 0.00 0.00 66 1017.5
20260904150032 81 121 3.0 9.0 0.00 0.00 0.00 66 1017.5
20260904145513 81 111 6.0 9.0 0.00 0.00 0.00 66 1017.5
20260904145014 80 119 5.0 10.0 0.00 0.00 0.00 67 1017.5
20260904144528 80 130 5.0 10.0 0.00 0.00 0.00 67 1017.5
20260904144023 80 117 5.0 9.0 0.00 0.00 0.00 67 1017.5
20260904143519 80 111 4.0 9.0 0.00 0.00 0.00 68 1017.4
20260904143014 80 110 5.0 9.0 0.00 0.00 0.00 68 1017.3
20260904142530 80 146 3.0 6.0 0.00 0.00 0.00 69 1017.3
20260904142026 80 131 4.0 6.0 0.00 0.00 0.00 68 1017.4
20260904141522 80 144 3.0 6.0 0.00 0.00 0.00 68 1017.3
20260904141022 79 136 3.0 6.0 0.00 0.00 0.00 69 1017.3
20260904140517 79 159 2.0 4.0 0.00 0.00 0.00 69 1017.2
20260904140045 79 159 2.0 5.0 0.00 0.00 0.00 70 1017.1
20260904135526 78 159 3.0 5.0 0.00 0.00 0.00 70 1017.1
20260904135021 78 159 2.0 5.0 0.00 0.00 0.00 71 1017.0
20260904134516 78 164 2.0 4.0 0.00 0.00 0.00 71 1016.9
20260904134031 77 164 2.0 4.0 0.00 0.00 0.00 71 1016.7
20260904133530 77 164 1.0 3.0 0.00 0.00 0.00 71 1016.7
20260904133024 77 180 2.0 3.0 0.00 0.00 0.00 72 1016.8
20260904132519 77 169 1.0 3.0 0.00 0.00 0.00 72 1016.7
20260904132015 77 169 1.0 3.0 0.00 0.00 0.00 72 1016.6
20260904131530 76 169 1.0 4.0 0.00 0.00 0.00 73 1016.5
20260904131026 76 169 2.0 4.0 0.00 0.00 0.00 73 1016.5
20260904130521 76 176 1.0 4.0 0.00 0.00 0.00 73 1016.4
20260904130033 76 177 2.0 4.0 0.00 0.00 0.00 73 1016.3
20260904125514 76 173 1.0 4.0 0.00 0.00 0.00 72 1016.3
20260904125029 77 169 2.0 4.0 0.00 0.00 0.00 72 1016.2
20260904124524 77 177 2.0 4.0 0.00 0.00 0.00 72 1016.1
20260904124019 77 169 2.0 5.0 0.00 0.00 0.00 72 1016.0
20260904123516 77 169 2.0 5.0 0.00 0.00 0.00 71 1015.9
20260904123030 77 129 3.0 5.0 0.00 0.00 0.00 71 1015.9
20260904122525 77 131 2.0 4.0 0.00 0.00 0.00 71 1015.9
20260904122024 77 133 3.0 6.0 0.00 0.00 0.00 71 1015.8
20260904121520 77 133 3.0 6.0 0.00 0.00 0.00 71 1015.8
20260904121016 77 139 2.0 6.0 0.00 0.00 0.00 71 1015.8
20260904120531 78 141 2.0 6.0 0.00 0.00 0.00 71 1015.8
20260904120038 77 150 2.0 5.0 0.00 0.00 0.00 71 1015.7
20260904115518 77 134 2.0 6.0 0.00 0.00 0.00 71 1015.8
20260904115013 78 135 2.0 6.0 0.00 0.00 0.00 70 1015.8
20260904114513 78 135 3.0 9.0 0.00 0.00 0.00 69 1015.8
20260904114028 78 135 3.0 9.0 0.00 0.00 0.00 69 1015.7
20260904113524 78 125 4.0 8.0 0.00 0.00 0.00 68 1015.7
20260904113019 79 140 4.0 9.0 0.00 0.00 0.00 68 1015.7
20260904112514 79 144 5.0 9.0 0.00 0.00 0.00 68 1015.6
20260904112029 79 135 5.0 9.0 0.00 0.00 0.00 67 1015.5
20260904111524 79 106 5.0 9.0 0.00 0.00 0.00 67 1015.5
20260904111023 79 99 4.0 8.0 0.00 0.00 0.00 67 1015.5
20260904110518 79 117 5.0 8.0 0.00 0.00 0.00 67 1015.5
20260904110045 79 110 3.0 9.0 0.00 0.00 0.00 67 1015.5
20260904105525 79 115 4.0 9.0 0.00 0.00 0.00 67 1015.5
20260904105020 79 131 3.0 9.0 0.00 0.00 0.00 66 1015.6
20260904104516 79 111 4.0 10.0 0.00 0.00 0.00 66 1015.5
20260904104012 80 139 6.0 10.0 0.00 0.00 0.00 66 1015.5
20260904103527 80 122 4.0 10.0 0.00 0.00 0.00 66 1015.4
20260904103027 79 129 5.0 10.0 0.00 0.00 0.00 66 1015.6
20260904102522 79 103 5.0 9.0 0.00 0.00 0.00 66 1015.5
20260904102016 79 115 3.0 6.0 0.00 0.00 0.00 66 1015.6
20260904101531 80 122 4.0 6.0 0.00 0.00 0.00 66 1015.5
20260904101025 79 129 4.0 6.0 0.00 0.00 0.00 66 1015.4
20260904100518 79 144 2.0 5.0 0.00 0.00 0.00 67 1015.4
20260904100044 79 150 2.0 5.0 0.00 0.00 0.00 67 1015.4
20260904095528 79 154 1.0 6.0 0.00 0.00 0.00 68 1015.4
20260904095022 79 144 3.0 6.0 0.00 0.00 0.00 68 1015.3
20260904094516 79 153 2.0 5.0 0.00 0.00 0.00 68 1015.4
20260904094030 79 129 1.0 3.0 0.00 0.00 0.00 68 1015.3
20260904093524 79 130 1.0 3.0 0.00 0.00 0.00 68 1015.3
20260904093017 79 130 2.0 4.0 0.00 0.00 0.00 67 1015.2
20260904092531 79 130 2.0 5.0 0.00 0.00 0.00 67 1015.2
20260904092025 79 131 3.0 5.0 0.00 0.00 0.00 67 1015.3
20260904091524 79 134 3.0 5.0 0.00 0.00 0.00 67 1015.3
20260904091019 79 136 2.0 6.0 0.00 0.00 0.00 67 1015.2
20260904090513 79 137 3.0 6.0 0.00 0.00 0.00 67 1015.2
20260904090040 79 137 3.0 6.0 0.00 0.00 0.00 67 1015.3
20260904085520 79 129 3.0 6.0 0.00 0.00 0.00 67 1015.2
20260904085015 79 121 3.0 5.0 0.00 0.00 0.00 66 1015.2
20260904084530 80 117 3.0 5.0 0.00 0.00 0.00 66 1015.3
20260904084029 80 115 3.0 6.0 0.00 0.00 0.00 66 1015.2
20260904083524 80 110 3.0 8.0 0.00 0.00 0.00 66 1015.3
20260904083019 80 106 4.0 8.0 0.00 0.00 0.00 66 1015.2
20260904082513 80 113 4.0 6.0 0.00 0.00 0.00 66 1015.3
20260904082028 80 125 3.0 6.0 0.00 0.00 0.00 66 1015.4
20260904081523 80 123 2.0 6.0 0.00 0.00 0.00 66 1015.4
20260904081018 80 123 3.0 6.0 0.00 0.00 0.00 66 1015.4
20260904080517 80 110 1.0 3.0 0.00 0.00 0.00 66 1015.4
20260904080045 80 110 1.0 4.0 0.00 0.00 0.00 66 1015.4
20260904075525 80 110 2.0 4.0 0.00 0.00 0.00 66 1015.4
20260904075019 80 110 3.0 5.0 0.00 0.00 0.00 65 1015.4
20260904074513 80 110 3.0 5.0 0.00 0.00 0.00 65 1015.4
20260904074027 80 110 3.0 5.0 0.00 0.00 0.00 65 1015.4
20260904073521 80 110 2.0 6.0 0.00 0.00 0.00 65 1015.5
20260904073015 80 137 3.0 5.0 0.00 0.00 0.00 64 1015.5
20260904072514 81 138 3.0 8.0 0.00 0.00 0.00 64 1015.5
20260904072028 81 140 3.0 8.0 0.00 0.00 0.00 64 1015.6
20260904071522 81 100 3.0 5.0 0.00 0.00 0.00 64 1015.7
20260904071016 81 98 3.0 5.0 0.00 0.00 0.00 63 1015.7
20260904070511 81 97 3.0 7.0 0.00 0.00 0.00 63 1015.8
20260904070038 81 96 3.0 7.0 0.00 0.00 0.00 63 1015.8
20260904065519 81 90 4.0 7.0 0.00 0.00 0.00 63 1015.8
20260904065017 81 92 2.0 9.0 0.00 0.00 0.00 63 1015.6
20260904064511 81 93 3.0 9.0 0.00 0.00 0.00 63 1015.8
20260904064026 81 98 4.0 7.0 0.00 0.00 0.00 63 1015.7
20260904063520 81 113 3.0 5.0 0.00 0.00 0.00 62 1015.6
20260904063015 81 115 3.0 4.0 0.00 0.00 0.00 61 1015.7
20260904062530 81 116 3.0 6.0 0.00 0.00 0.00 61 1015.7
20260904062025 81 117 3.0 5.0 0.00 0.00 0.00 61 1015.6